Regional Weather Roundup
Issued by NWS Cleveland, OH

Home | Current Version | Previous Version | Text Only | Print | Product List | Glossary Off
Versions: 1 2 3 4 5 6 7 8 9 10 11 12 13 14 15 16 17 18 19 20 21 22 23 24 25 26 27 28 29 30 31 32 33 34 35 36 37 38 39 40 41 42 43 44 45 46 47 48 49 50

000
ASUS41 KCLE 171602
RWRCLE
OHIO REGIONAL WEATHER ROUNDUP
NATIONAL WEATHER SERVICE CLEVELAND, OH
1200 PM EDT THU AUG 17 2017

NOTE: "FAIR" INDICATES FEW OR NO CLOUDS BELOW 12,000 FEET WITH NO
SIGNIFICANT WEATHER AND/OR OBSTRUCTIONS TO VISIBILITY.

OHZ001>008-015>018-024>027-034-035-043-044-171700-
   NORTHWEST OHIO

CITY           SKY/WX    TMP DP  RH WIND       PRES   REMARKS
DEFIANCE       CLOUDY    81  72  74 S12       29.83F
FINDLAY        MOSUNNY   85  72  65 S14       29.85F HX  91
TOLEDO EXPRESS PTSUNNY   82  74  76 SW8       29.84F
TOLEDO EXEC    CLOUDY    83  74  74 S13       29.85F
LIMA           PTSUNNY   83  74  74 SW13      29.88F
$$

OHZ009>014-019>023-028>033-038-089-171700-
   NORTHEAST OHIO

CITY           SKY/WX    TMP DP  RH WIND       PRES   REMARKS
CLE-HOPKINS    CLOUDY    85  71  63 S10G24    29.91F HX  90
CLE-LAKEFRONT  CLOUDY    85  70  60 S9        29.88F
CUY CO. ARPT   NOT AVBL
LORAIN-ELYRIA  CLOUDY    81  67  62 S13       29.90F
ASHTABULA      PTSUNNY   80  71  74 S12       29.94F
AKRON-CANTON   CLOUDY    82  70  66 S10       29.95F
WOOSTER        CLOUDY    79  71  76 S13G21    29.94F
MANSFIELD      CLOUDY    81  70  69 S10       29.94F
YOUNGSTOWN     CLOUDY    81  70  69 S10       29.97F
$$

OHZ042-051>053-060>062-070>072-077>081-171700-
  SOUTHWEST OHIO

CITY           SKY/WX    TMP DP  RH WIND       PRES   REMARKS
CINC-COVINGTON PTSUNNY   84  77  79 SW14G20   29.94S HX  94
CINC-LUNKEN    MOSUNNY   87  76  69 SW14      29.92F HX  97
HAMILTON       SUNNY     87  75  67 VRB7G16   29.92F HX  96
DAYTON         PTSUNNY   84  73  69 S14G25    29.91F HX  90
WRIGHT-PAT AFB NOT AVBL
DAYTON GENERAL CLOUDY    83  73  72 SW10      29.92F
WILMINGTON     MOSUNNY   85  75  72 SW15      29.94S HX  93
$$

OHZ036-037-039>041-045>050-054>059-063>069-073>076-082>088-171700-
  CENTRAL AND SOUTHEAST OHIO

CITY           SKY/WX    TMP DP  RH WIND       PRES   REMARKS
COLUMBUS       PTSUNNY   82  77  84 S8        29.93F HX  90
OSU AIRPORT    PTSUNNY   82  77  84 S10       29.92F HX  90
BOLTON FIELD   CLOUDY    82  75  78 S12G20    29.94F
RICKENBACK AFB PTSUNNY   84  76  76 SW15      29.93F HX  92
NEWARK         CLOUDY    82  74  76 S8        29.94F
MARION         CLOUDY    82  73  74 S13       29.92F
LANCASTER      PTSUNNY   84  75  74 S12       29.95F HX  92
ZANESVILLE     CLOUDY    86  73  65 S10       29.96F HX  93
NEW PHILLY     NOT AVBL
$$




USA.gov is the U.S. government's official web portal to all federal, state and local government web resources and services.